User: anonymous   Login
Location: Sungai Jaoh
(2.9167°N, 113.9167°E)
Time: 04:38:34
(UTC+00:00)
Language:

IRIDIUM 33 DEB - Orbit

View from above orbital plane
View from above orbital plane
View from above satellite
View from above satellite

Ground track
Ground track

The orbit data is extracted from the following two-line orbital elements,

1 39778U 97051AAK 21289.09797239  .00000694  00000-0  21235-3 0  9999
2 39778  86.3843 332.4260 0010902  36.0789 324.1143 14.40392516387532
Epoch (UTC): 16 October 2021 02:21:04
Eccentricity: 0.0010902
inclination: 86.3843°
perigee height: 749 km
apogee height: 765 km
right ascension of ascending node: 332.4260°
argument of perigee: 36.0789°
revolutions per day: 14.40392516
mean anomaly at epoch: 324.1143°
orbit number at epoch: 38753

The dashed part of the orbit path shows where the satellite is in the earth's shadow,  

DLR